CDT,Max TemperatureF,Mean TemperatureF,Min TemperatureF,Max Dew PointF,MeanDew PointF,Min DewpointF,Max Humidity, Mean Humidity, Min Humidity, Max Sea Level PressureIn, Mean Sea Level PressureIn, Min Sea Level PressureIn, Max VisibilityMiles, Mean VisibilityMiles, Min VisibilityMiles, Max Wind SpeedMPH, Mean Wind SpeedMPH, Max Gust SpeedMPH,PrecipitationIn, CloudCover, Events, WindDirDegrees
2010-10-1,55,44,33,45,38,34,100,80,50,30.23,30.10,30.04,10,10,7,15,2,22,0.03,5,Rain,15
2010-10-2,50,39,28,36,31,27,100,74,47,30.45,30.40,30.33,10,10,10,10,2,18,0.00,1,,335
2010-10-3,59,42,24,36,28,23,100,67,29,30.41,30.36,30.26,10,10,5,12,2,21,0.00,0,,210
2010-10-4,64,47,30,34,31,28,93,53,26,30.28,30.25,30.19,10,10,10,14,5,21,0.00,0,,208
2010-10-5,71,52,32,39,35,30,93,60,29,30.24,30.20,30.09,10,10,10,15,5,25,0.00,0,,158
2010-10-6,64,58,51,46,36,27,77,46,24,30.14,30.06,29.99,10,10,10,16,10,29,0.00,0,,282
2010-10-7,71,54,37,43,36,32,87,55,29,30.09,30.03,29.96,10,10,10,14,5,20,0.00,0,,259
2010-10-8,77,58,39,48,41,37,93,55,27,29.94,29.89,29.86,10,10,10,5,1,,0.00,0,,265
2010-10-9,71,60,48,46,43,39,82,58,35,30.04,30.01,29.97,10,10,10,14,7,17,0.00,0,Thunderstorm,123
2010-10-10,73,56,39,50,43,37,93,70,41,29.98,29.93,29.87,10,10,10,6,0,,0.00,0,,34
2010-10-11,66,52,39,48,43,37,100,75,49,29.92,29.89,29.85,10,10,10,7,2,,0.00,0,,136
2010-10-12,59,49,39,52,43,37,100,80,48,29.98,29.89,29.84,10,10,2,17,4,24,0.00,3,Rain,265
2010-10-13,60,45,30,37,31,21,100,63,22,30.14,30.08,30.04,10,10,10,15,3,21,0.00,0,,269
2010-10-14,57,45,33,36,32,28,87,59,36,30.04,29.87,29.76,10,10,10,20,7,30,0.00,3,,271
2010-10-15,55,44,33,39,36,34,100,71,47,30.11,30.06,29.98,10,10,10,10,4,16,0.00,4,,196
2010-10-16,57,50,42,37,31,21,81,53,25,29.97,29.88,29.82,10,10,10,24,10,30,0.00,0,,253
2010-10-17,48,37,26,30,26,25,100,64,40,30.10,30.06,30.01,10,10,10,16,6,23,0.00,1,,270
2010-10-18,50,37,24,28,25,21,93,65,32,30.08,30.02,29.90,10,10,10,16,4,25,0.00,2,,265
2010-10-19,55,42,28,36,31,27,100,69,33,29.86,29.80,29.65,10,10,10,15,7,22,0.00,2,,249
2010-10-20,51,46,39,36,30,23,87,57,33,29.69,29.57,29.52,10,10,10,21,9,30,0.00,2,Rain-Thunderstorm,278
2010-10-21,44,37,30,32,28,23,93,67,49,29.91,29.86,29.76,10,10,4,17,8,26,0.00,5,Rain-Snow,300
2010-10-22,62,44,26,34,28,25,93,56,27,29.93,29.85,29.75,10,10,10,15,6,24,0.00,2,,218
2010-10-23,48,40,32,36,35,30,100,78,58,29.98,29.93,29.86,10,10,10,12,4,17,0.00,4,,81
2010-10-24,46,42,39,45,38,27,100,83,53,29.92,29.77,29.61,10,9,5,10,5,17,0.09,8,Rain,64
2010-10-25,51,48,44,50,46,43,100,92,82,29.50,29.37,29.26,10,9,4,15,7,22,0.03,8,Rain,135
2010-10-26,53,46,37,45,40,36,93,90,87,29.14,28.63,28.32,10,9,4,22,14,30,0.55,8,Rain,116
2010-10-27,39,36,33,39,35,32,100,96,93,29.24,28.75,28.38,10,5,2,23,15,31,0.11,8,Rain-Snow,234
2010-10-28,33,32,30,32,27,19,93,79,64,30.16,29.91,29.54,10,8,2,20,14,29,0.02,8,Snow,294
2010-10-29,42,32,21,25,19,10,100,66,27,30.18,30.07,29.90,10,10,10,10,6,,0.00,1,,240
2010-10-30,41,36,30,28,24,18,93,64,39,30.00,29.87,29.77,10,10,5,10,4,16,0.00,5,Snow,1
2010-10-31,37,29,21,28,25,19,100,81,60,30.23,30.18,30.08,10,10,5,6,1,,0.00,5,,264